St. Inigoes, MD

1:04 PM EDT on June 19, 2018 (GMT -0400)
Webster Naval Outlying Field

Weather History for KNUI - November, 2017

Change the Weather History Date:

Friday, November 10, 2017

  Actual Average (KNHK) Record (KNHK)
Temperature  
Mean Temperature 44 °F -  
Max Temperature 53 °F 63 °F 75 °F (1999)
Min Temperature 33 °F 44 °F 28 °F (2003)
Degree Days  
Heating Degree Days 22    
Moisture  
Dew Point 33 °F    
Average Humidity 64    
Maximum Humidity 93    
Minimum Humidity 37    
Precipitation  
Precipitation 0.00 in - - ()
Sea Level Pressure  
Sea Level Pressure 30.23 in    
Wind  
Wind Speed 6 mph (NW)    
Max Wind Speed 12 mph    
Max Gust Speed 25 mph    
Visibility 10 miles    
Events      
Averages and records for this station are not official NWS values.
T = Trace of Precipitation, MM = Missing Value Source: NWS Daily Summary

Daily Weather History Graph

Daily Weather History Graph

Search for Another Location

Airport or City:

Astronomy

Nov. 10, 2017 Rise Set
Actual Time 6:41 AM EST 4:57 PM EST
Civil Twilight 6:13 AM EST 5:25 PM EST
Nautical Twilight 5:42 AM EST 5:56 PM EST
Astronomical Twilight 5:11 AM EST 6:27 PM EST
Moon 11:40 PM EST (11/10) 12:52 PM EST (11/10)
Length of Visible Light 11h 11m
Length of Day
10h 15m
Waning Gibbous, 52% of the Moon is Illuminated
Nov 10
Waning Gibbous
Nov 10
Last Quarter
Nov 18
New
Nov 26
First Quarter
Dec 3
Full

Hourly Weather History & Observations

Time (EST) Temp. Windchill Dew Point Humidity Pressure Visibility Wind Dir Wind Speed Gust Speed Precip Events Conditions
12:12 AM 53.1 °F - 51.1 °F 93% 30.04 in 8.0 mi NW 3.5 mph - N/A   Overcast
12:44 AM 53.1 °F - 51.1 °F 93% 30.04 in 8.0 mi West 4.6 mph - N/A   Overcast
12:53 AM 53.1 °F - 51.1 °F 93% 30.04 in 9.0 mi Variable 4.6 mph - N/A   Overcast
1:11 AM 53.1 °F - 51.1 °F 93% 30.03 in 9.0 mi Variable 6.9 mph - N/A   Overcast
1:20 AM 53.1 °F - 51.1 °F 93% 30.03 in 9.0 mi WNW 8.1 mph - N/A   Overcast
1:53 AM 52.0 °F - 48.9 °F 89% 30.04 in 10.0 mi WNW 8.1 mph - N/A   Mostly Cloudy
2:08 AM 52.0 °F - 48.9 °F 89% 30.04 in 10.0 mi Variable 4.6 mph - N/A   Partly Cloudy
2:53 AM 50.0 °F - 46.9 °F 89% 30.04 in 10.0 mi Calm Calm - N/A   Clear
3:53 AM 50.0 °F - 44.1 °F 80% 30.04 in 10.0 mi Calm Calm - N/A   Clear
4:53 AM 48.0 °F - 43.0 °F 83% 30.06 in 10.0 mi Variable 3.5 mph - N/A   Clear
6:53 AM 46.9 °F - 41.0 °F 80% 30.12 in 9.0 mi WNW 3.5 mph - N/A   Clear
7:53 AM 48.9 °F - 37.9 °F 66% 30.15 in 8.0 mi NNW 9.2 mph - N/A   Clear
8:53 AM 48.9 °F - 35.1 °F 59% 30.17 in 9.0 mi NNW 9.2 mph 23.0 mph N/A   Clear
9:53 AM 48.0 °F - 28.9 °F 48% 30.21 in 9.0 mi NNW 10.4 mph 25.3 mph N/A   Clear
10:53 AM 48.0 °F - 26.1 °F 42% 30.26 in 10.0 mi North - - N/A   Clear
11:53 AM 48.0 °F - 27.0 °F 44% 30.25 in 10.0 mi NNW 9.2 mph 18.4 mph N/A   Clear
12:53 PM 46.9 °F - 27.0 °F 46% 30.26 in 10.0 mi NW 9.2 mph 24.2 mph N/A   Scattered Clouds
1:53 PM 46.9 °F - 26.1 °F 44% 30.27 in 10.0 mi Variable 6.9 mph 23.0 mph N/A   Partly Cloudy
2:53 PM 45.0 °F 39.3 °F 23.0 °F 42% 30.30 in 10.0 mi NNW 11.5 mph 20.7 mph N/A   Clear
3:53 PM 43.0 °F 37.2 °F 18.0 °F 37% 30.34 in 10.0 mi NNW 10.4 mph - 0.00 in   Clear
4:53 PM 41.0 °F 36.4 °F 19.0 °F 41% 30.38 in 10.0 mi Variable 6.9 mph - N/A   Clear
5:53 PM 39.0 °F 34.0 °F 19.0 °F 45% 30.42 in 10.0 mi Variable 6.9 mph - N/A   Clear
6:53 PM 39.0 °F 34.8 °F 19.0 °F 45% 30.45 in 10.0 mi NW 5.8 mph - N/A   Clear
7:53 PM 37.9 °F 32.1 °F 18.0 °F 45% 30.48 in 10.0 mi NNW 8.1 mph - N/A   Clear
8:53 PM 37.0 °F 34.5 °F 18.0 °F 46% 30.50 in 10.0 mi Variable 3.5 mph - N/A   Clear
9:53 PM 36.0 °F 31.1 °F 18.0 °F 48% 30.51 in 10.0 mi Variable 5.8 mph - N/A   Clear
10:53 PM 34.0 °F 29.8 °F 18.0 °F 52% 30.52 in 10.0 mi Variable 4.6 mph - N/A   Clear
11:53 PM 33.1 °F 30.0 °F 18.0 °F 54% 30.53 in 10.0 mi NNE 3.5 mph - N/A   Clear